owner,sensor,date,latitude,longitude,vertical_datum,sea_water_practical_salinity,qcFlag 
NERRS,ioos:station:NOAA.NERRS:apaebwq:1,2017-10-01T00:45:00Z,29.7858,-84.8752,2.03,21.0,1111122 
NERRS,ioos:station:NOAA.NERRS:apaebwq:1,2017-10-01T01:45:00Z,29.7858,-84.8752,2.12,20.8,1111122 
NERRS,ioos:station:NOAA.NERRS:apaebwq:1,2017-10-01T02:45:00Z,29.7858,-84.8752,2.06,20.7,1111122 
NERRS,ioos:station:NOAA.NERRS:apaebwq:1,2017-10-01T03:45:00Z,29.7858,-84.8752,2.08,20.5,1111122 
NERRS,ioos:station:NOAA.NERRS:apaebwq:1,2017-10-01T04:45:00Z,29.7858,-84.8752,2.14,20.0,1111122 
NERRS,ioos:station:NOAA.NERRS:apaebwq:1,2017-10-01T05:45:00Z,29.7858,-84.8752,2.2,20.1,1111122 
NERRS,ioos:station:NOAA.NERRS:apaebwq:1,2017-10-01T06:45:00Z,29.7858,-84.8752,2.2,20.4,1111122 
NERRS,ioos:station:NOAA.NERRS:apaebwq:1,2017-10-01T07:45:00Z,29.7858,-84.8752,2.17,20.8,1111122 
NERRS,ioos:station:NOAA.NERRS:apaebwq:1,2017-10-01T08:45:00Z,29.7858,-84.8752,2.14,21.2,1111122 
NERRS,ioos:station:NOAA.NERRS:apaebwq:1,2017-10-01T09:45:00Z,29.7858,-84.8752,2.11,21.5,1111122 
NERRS,ioos:station:NOAA.NERRS:apaebwq:1,2017-10-01T10:45:00Z,29.7858,-84.8752,2.1,22.1,1111122 
NERRS,ioos:station:NOAA.NERRS:apaebwq:1,2017-10-01T11:45:00Z,29.7858,-84.8752,2.1,21.9,1111122 
NERRS,ioos:station:NOAA.NERRS:apaebwq:1,2017-10-01T12:45:00Z,29.7858,-84.8752,2.13,21.2,1111122 
NERRS,ioos:station:NOAA.NERRS:apaebwq:1,2017-10-01T13:45:00Z,29.7858,-84.8752,2.14,21.0,1111122 
NERRS,ioos:station:NOAA.NERRS:apaebwq:1,2017-10-01T14:45:00Z,29.7858,-84.8752,2.17,18.5,1111122 
NERRS,ioos:station:NOAA.NERRS:apaebwq:1,2017-10-01T15:45:00Z,29.7858,-84.8752,2.2,17.7,1111122 
NERRS,ioos:station:NOAA.NERRS:apaebwq:1,2017-10-01T16:45:00Z,29.7858,-84.8752,2.19,17.8,1111122 
NERRS,ioos:station:NOAA.NERRS:apaebwq:1,2017-10-01T17:45:00Z,29.7858,-84.8752,2.17,17.3,1111122 
NERRS,ioos:station:NOAA.NERRS:apaebwq:1,2017-10-01T18:45:00Z,29.7858,-84.8752,2.13,17.4,1111122 
NERRS,ioos:station:NOAA.NERRS:apaebwq:1,2017-10-01T19:45:00Z,29.7858,-84.8752,2.13,17.4,1111122 
NERRS,ioos:station:NOAA.NERRS:apaebwq:1,2017-10-01T20:45:00Z,29.7858,-84.8752,2.12,18.3,1111122 
NERRS,ioos:station:NOAA.NERRS:apaebwq:1,2017-10-01T21:45:00Z,29.7858,-84.8752,2.07,18.5,1111122 
NERRS,ioos:station:NOAA.NERRS:apaebwq:1,2017-10-01T22:45:00Z,29.7858,-84.8752,2.01,18.5,1111122 
NERRS,ioos:station:NOAA.NERRS:apaebwq:1,2017-10-01T23:45:00Z,29.7858,-84.8752,1.97,17.9,1111122 
NERRS,ioos:station:NOAA.NERRS:apaebwq:1,2017-10-02T00:45:00Z,29.7858,-84.8752,1.95,17.5,1111122 
NERRS,ioos:station:NOAA.NERRS:apaebwq:1,2017-10-02T01:45:00Z,29.7858,-84.8752,1.97,17.2,1111122 
NERRS,ioos:station:NOAA.NERRS:apaebwq:1,2017-10-02T02:45:00Z,29.7858,-84.8752,2.01,17.3,1111122 
NERRS,ioos:station:NOAA.NERRS:apaebwq:1,2017-10-02T03:45:00Z,29.7858,-84.8752,2.07,17.7,1111122 
NERRS,ioos:station:NOAA.NERRS:apaebwq:1,2017-10-02T04:45:00Z,29.7858,-84.8752,2.08,18.1,1111122 
NERRS,ioos:station:NOAA.NERRS:apaebwq:1,2017-10-02T05:45:00Z,29.7858,-84.8752,2.09,18.2,1111122 
NERRS,ioos:station:NOAA.NERRS:apaebwq:1,2017-10-02T10:45:00Z,29.7858,-84.8752,2.28,21.4,1111122 
NERRS,ioos:station:NOAA.NERRS:apaebwq:1,2017-10-02T11:45:00Z,29.7858,-84.8752,2.32,21.6,1111122 
NERRS,ioos:station:NOAA.NERRS:apaebwq:1,2017-10-02T12:45:00Z,29.7858,-84.8752,2.33,21.6,1111122 
NERRS,ioos:station:NOAA.NERRS:apaebwq:1,2017-10-02T13:45:00Z,29.7858,-84.8752,2.33,21.5,1111122 
NERRS,ioos:station:NOAA.NERRS:apaebwq:1,2017-10-02T14:45:00Z,29.7858,-84.8752,2.37,21.2,1111122 
NERRS,ioos:station:NOAA.NERRS:apaebwq:1,2017-10-02T15:45:00Z,29.7858,-84.8752,2.4,21.3,1111122 
NERRS,ioos:station:NOAA.NERRS:apaebwq:1,2017-10-02T16:45:00Z,29.7858,-84.8752,2.4,21.0,1111122 
NERRS,ioos:station:NOAA.NERRS:apaebwq:1,2017-10-02T17:45:00Z,29.7858,-84.8752,2.4,20.7,1111122 
NERRS,ioos:station:NOAA.NERRS:apaebwq:1,2017-10-02T18:45:00Z,29.7858,-84.8752,2.4,21.2,1111122 
NERRS,ioos:station:NOAA.NERRS:apaebwq:1,2017-10-02T19:45:00Z,29.7858,-84.8752,2.38,21.3,1111122 
NERRS,ioos:station:NOAA.NERRS:apaebwq:1,2017-10-02T20:45:00Z,29.7858,-84.8752,2.34,21.6,1111122 
NERRS,ioos:station:NOAA.NERRS:apaebwq:1,2017-10-02T21:45:00Z,29.7858,-84.8752,2.24,22.1,1111122 
NERRS,ioos:station:NOAA.NERRS:apaebwq:1,2017-10-02T22:45:00Z,29.7858,-84.8752,2.16,26.8,1111122 
NERRS,ioos:station:NOAA.NERRS:apaebwq:1,2017-10-02T23:45:00Z,29.7858,-84.8752,2.11,27.4,1111122 
NERRS,ioos:station:NOAA.NERRS:apaebwq:1,2017-10-03T00:45:00Z,29.7858,-84.8752,2.07,27.5,1111122 
NERRS,ioos:station:NOAA.NERRS:apaebwq:1,2017-10-03T01:45:00Z,29.7858,-84.8752,2.06,28.2,1111122 
NERRS,ioos:station:NOAA.NERRS:apaebwq:1,2017-10-03T02:45:00Z,29.7858,-84.8752,2.09,28.0,1111122 
NERRS,ioos:station:NOAA.NERRS:apaebwq:1,2017-10-03T03:45:00Z,29.7858,-84.8752,2.19,27.7,1111122 
NERRS,ioos:station:NOAA.NERRS:apaebwq:1,2017-10-03T04:45:00Z,29.7858,-84.8752,2.29,27.6,1111122 
NERRS,ioos:station:NOAA.NERRS:apaebwq:1,2017-10-03T05:45:00Z,29.7858,-84.8752,2.33,27.5,1111122 
NERRS,ioos:station:NOAA.NERRS:apaebwq:1,2017-10-03T06:45:00Z,29.7858,-84.8752,2.32,27.7,1111122 
NERRS,ioos:station:NOAA.NERRS:apaebwq:1,2017-10-03T07:45:00Z,29.7858,-84.8752,2.29,27.9,1111122 
NERRS,ioos:station:NOAA.NERRS:apaebwq:1,2017-10-03T08:45:00Z,29.7858,-84.8752,2.27,28.1,1111122 
NERRS,ioos:station:NOAA.NERRS:apaebwq:1,2017-10-03T11:45:00Z,29.7858,-84.8752,2.24,27.9,1111122 
NERRS,ioos:station:NOAA.NERRS:apaebwq:1,2017-10-03T12:45:00Z,29.7858,-84.8752,2.24,28.0,1111122 
NERRS,ioos:station:NOAA.NERRS:apaebwq:1,2017-10-03T13:45:00Z,29.7858,-84.8752,2.22,28.1,1111122 
NERRS,ioos:station:NOAA.NERRS:apaebwq:1,2017-10-03T14:45:00Z,29.7858,-84.8752,2.25,27.8,1111122 
NERRS,ioos:station:NOAA.NERRS:apaebwq:1,2017-10-03T15:45:00Z,29.7858,-84.8752,2.26,27.5,1111122 
NERRS,ioos:station:NOAA.NERRS:apaebwq:1,2017-10-03T16:45:00Z,29.7858,-84.8752,2.29,27.2,1111122 
NERRS,ioos:station:NOAA.NERRS:apaebwq:1,2017-10-03T17:45:00Z,29.7858,-84.8752,2.32,27.0,1111122 
NERRS,ioos:station:NOAA.NERRS:apaebwq:1,2017-10-03T18:45:00Z,29.7858,-84.8752,2.32,27.1,1111122 
NERRS,ioos:station:NOAA.NERRS:apaebwq:1,2017-10-03T19:45:00Z,29.7858,-84.8752,2.3,27.2,1111122 
NERRS,ioos:station:NOAA.NERRS:apaebwq:1,2017-10-03T20:45:00Z,29.7858,-84.8752,2.22,27.5,1111122 
NERRS,ioos:station:NOAA.NERRS:apaebwq:1,2017-10-03T21:45:00Z,29.7858,-84.8752,2.16,27.5,1111122 
NERRS,ioos:station:NOAA.NERRS:apaebwq:1,2017-10-03T22:45:00Z,29.7858,-84.8752,2.08,27.4,1111122 
NERRS,ioos:station:NOAA.NERRS:apaebwq:1,2017-10-03T23:45:00Z,29.7858,-84.8752,2.01,27.5,1111122 
NERRS,ioos:station:NOAA.NERRS:apaebwq:1,2017-10-04T00:45:00Z,29.7858,-84.8752,1.97,27.4,1111122 
NERRS,ioos:station:NOAA.NERRS:apaebwq:1,2017-10-04T01:45:00Z,29.7858,-84.8752,1.92,27.4,1111122 
NERRS,ioos:station:NOAA.NERRS:apaebwq:1,2017-10-04T02:45:00Z,29.7858,-84.8752,1.92,27.4,1111122 
NERRS,ioos:station:NOAA.NERRS:apaebwq:1,2017-10-04T03:45:00Z,29.7858,-84.8752,1.99,26.0,1111122 
NERRS,ioos:station:NOAA.NERRS:apaebwq:1,2017-10-04T04:45:00Z,29.7858,-84.8752,2.06,23.1,1111122 
NERRS,ioos:station:NOAA.NERRS:apaebwq:1,2017-10-04T05:45:00Z,29.7858,-84.8752,2.16,22.4,1111122 
NERRS,ioos:station:NOAA.NERRS:apaebwq:1,2017-10-04T06:45:00Z,29.7858,-84.8752,2.2,22.4,1111122 
NERRS,ioos:station:NOAA.NERRS:apaebwq:1,2017-10-04T07:45:00Z,29.7858,-84.8752,2.2,22.3,1111122 
NERRS,ioos:station:NOAA.NERRS:apaebwq:1,2017-10-04T08:45:00Z,29.7858,-84.8752,2.15,25.1,1111122 
NERRS,ioos:station:NOAA.NERRS:apaebwq:1,2017-10-04T10:45:00Z,29.7858,-84.8752,2.07,25.4,1111122 
NERRS,ioos:station:NOAA.NERRS:apaebwq:1,2017-10-04T11:45:00Z,29.7858,-84.8752,2.02,24.9,1111122 
NERRS,ioos:station:NOAA.NERRS:apaebwq:1,2017-10-04T12:45:00Z,29.7858,-84.8752,1.98,24.6,1111122 
NERRS,ioos:station:NOAA.NERRS:apaebwq:1,2017-10-04T13:45:00Z,29.7858,-84.8752,2.0,25.3,1111122 
NERRS,ioos:station:NOAA.NERRS:apaebwq:1,2017-10-04T14:45:00Z,29.7858,-84.8752,2.02,24.6,1111122 
NERRS,ioos:station:NOAA.NERRS:apaebwq:1,2017-10-04T15:45:00Z,29.7858,-84.8752,2.06,21.7,1111122 
NERRS,ioos:station:NOAA.NERRS:apaebwq:1,2017-10-04T16:45:00Z,29.7858,-84.8752,2.1,21.1,1111122 
NERRS,ioos:station:NOAA.NERRS:apaebwq:1,2017-10-04T17:45:00Z,29.7858,-84.8752,2.16,20.6,1111122 
NERRS,ioos:station:NOAA.NERRS:apaebwq:1,2017-10-04T18:45:00Z,29.7858,-84.8752,2.2,21.4,1111122 
NERRS,ioos:station:NOAA.NERRS:apaebwq:1,2017-10-04T19:45:00Z,29.7858,-84.8752,2.21,23.0,1111122 
NERRS,ioos:station:NOAA.NERRS:apaebwq:1,2017-10-04T20:45:00Z,29.7858,-84.8752,2.21,22.8,1111122 
NERRS,ioos:station:NOAA.NERRS:apaebwq:1,2017-10-04T21:45:00Z,29.7858,-84.8752,2.17,23.0,1111122 
NERRS,ioos:station:NOAA.NERRS:apaebwq:1,2017-10-04T22:45:00Z,29.7858,-84.8752,2.12,23.3,1111122 
NERRS,ioos:station:NOAA.NERRS:apaebwq:1,2017-10-04T23:45:00Z,29.7858,-84.8752,2.07,23.5,1111122 
NERRS,ioos:station:NOAA.NERRS:apaebwq:1,2017-10-05T00:45:00Z,29.7858,-84.8752,2.03,23.9,1111122 
NERRS,ioos:station:NOAA.NERRS:apaebwq:1,2017-10-05T01:45:00Z,29.7858,-84.8752,2.03,24.7,1111122 
NERRS,ioos:station:NOAA.NERRS:apaebwq:1,2017-10-05T02:45:00Z,29.7858,-84.8752,1.99,25.3,1111122 
NERRS,ioos:station:NOAA.NERRS:apaebwq:1,2017-10-05T03:45:00Z,29.7858,-84.8752,1.98,25.8,1111122 
NERRS,ioos:station:NOAA.NERRS:apaebwq:1,2017-10-05T04:45:00Z,29.7858,-84.8752,2.09,26.3,1111122 
NERRS,ioos:station:NOAA.NERRS:apaebwq:1,2017-10-05T05:45:00Z,29.7858,-84.8752,2.23,25.7,1111122 
NERRS,ioos:station:NOAA.NERRS:apaebwq:1,2017-10-05T06:45:00Z,29.7858,-84.8752,2.26,25.3,1111122 
NERRS,ioos:station:NOAA.NERRS:apaebwq:1,2017-10-05T07:45:00Z,29.7858,-84.8752,2.25,25.7,1111122 
NERRS,ioos:station:NOAA.NERRS:apaebwq:1,2017-10-05T08:45:00Z,29.7858,-84.8752,2.24,26.5,1111122 
NERRS,ioos:station:NOAA.NERRS:apaebwq:1,2017-10-05T09:45:00Z,29.7858,-84.8752,2.18,28.4,1111122 
NERRS,ioos:station:NOAA.NERRS:apaebwq:1,2017-10-05T10:45:00Z,29.7858,-84.8752,2.1,28.7,1111122 
NERRS,ioos:station:NOAA.NERRS:apaebwq:1,2017-10-05T11:45:00Z,29.7858,-84.8752,2.01,28.4,1111122 
NERRS,ioos:station:NOAA.NERRS:apaebwq:1,2017-10-05T12:45:00Z,29.7858,-84.8752,1.94,28.4,1111122 
NERRS,ioos:station:NOAA.NERRS:apaebwq:1,2017-10-05T13:45:00Z,29.7858,-84.8752,1.91,28.1,1111122 
NERRS,ioos:station:NOAA.NERRS:apaebwq:1,2017-10-05T14:45:00Z,29.7858,-84.8752,1.92,27.0,1111122 
NERRS,ioos:station:NOAA.NERRS:apaebwq:1,2017-10-05T15:45:00Z,29.7858,-84.8752,1.98,25.7,1111122 
NERRS,ioos:station:NOAA.NERRS:apaebwq:1,2017-10-05T17:45:00Z,29.7858,-84.8752,2.18,23.4,1111122 
NERRS,ioos:station:NOAA.NERRS:apaebwq:1,2017-10-05T18:45:00Z,29.7858,-84.8752,2.27,25.1,1111122 
NERRS,ioos:station:NOAA.NERRS:apaebwq:1,2017-10-05T19:45:00Z,29.7858,-84.8752,2.3,25.3,1111122 
NERRS,ioos:station:NOAA.NERRS:apaebwq:1,2017-10-05T20:45:00Z,29.7858,-84.8752,2.28,25.2,1111122 
NERRS,ioos:station:NOAA.NERRS:apaebwq:1,2017-10-05T21:45:00Z,29.7858,-84.8752,2.22,25.3,1111122 
NERRS,ioos:station:NOAA.NERRS:apaebwq:1,2017-10-05T22:45:00Z,29.7858,-84.8752,2.14,25.4,1111122 
NERRS,ioos:station:NOAA.NERRS:apaebwq:1,2017-10-05T23:45:00Z,29.7858,-84.8752,2.05,25.6,1111122 
NERRS,ioos:station:NOAA.NERRS:apaebwq:1,2017-10-06T00:45:00Z,29.7858,-84.8752,2.03,25.5,1111122 
NERRS,ioos:station:NOAA.NERRS:apaebwq:1,2017-10-06T01:45:00Z,29.7858,-84.8752,1.99,25.5,1111122 
NERRS,ioos:station:NOAA.NERRS:apaebwq:1,2017-10-06T02:45:00Z,29.7858,-84.8752,1.94,25.4,1111122 
NERRS,ioos:station:NOAA.NERRS:apaebwq:1,2017-10-06T03:45:00Z,29.7858,-84.8752,1.92,25.2,1111122 
NERRS,ioos:station:NOAA.NERRS:apaebwq:1,2017-10-06T04:45:00Z,29.7858,-84.8752,2.01,23.7,1111122 
NERRS,ioos:station:NOAA.NERRS:apaebwq:1,2017-10-06T05:45:00Z,29.7858,-84.8752,2.11,23.7,1111122 
NERRS,ioos:station:NOAA.NERRS:apaebwq:1,2017-10-06T06:45:00Z,29.7858,-84.8752,2.22,25.3,1111122 
NERRS,ioos:station:NOAA.NERRS:apaebwq:1,2017-10-06T07:45:00Z,29.7858,-84.8752,2.3,25.3,1111122 
NERRS,ioos:station:NOAA.NERRS:apaebwq:1,2017-10-06T08:45:00Z,29.7858,-84.8752,2.31,25.4,1111122 
NERRS,ioos:station:NOAA.NERRS:apaebwq:1,2017-10-06T09:45:00Z,29.7858,-84.8752,2.28,25.7,1111122 
NERRS,ioos:station:NOAA.NERRS:apaebwq:1,2017-10-06T10:45:00Z,29.7858,-84.8752,2.23,26.1,1111122 
NERRS,ioos:station:NOAA.NERRS:apaebwq:1,2017-10-06T11:45:00Z,29.7858,-84.8752,2.17,26.8,1111122 
NERRS,ioos:station:NOAA.NERRS:apaebwq:1,2017-10-06T12:45:00Z,29.7858,-84.8752,2.1,27.1,1111122 
NERRS,ioos:station:NOAA.NERRS:apaebwq:1,2017-10-06T13:45:00Z,29.7858,-84.8752,2.05,27.3,1111122 
NERRS,ioos:station:NOAA.NERRS:apaebwq:1,2017-10-06T14:45:00Z,29.7858,-84.8752,2.01,27.2,1111122 
NERRS,ioos:station:NOAA.NERRS:apaebwq:1,2017-10-06T15:45:00Z,29.7858,-84.8752,2.09,25.7,1111122 
NERRS,ioos:station:NOAA.NERRS:apaebwq:1,2017-10-06T16:45:00Z,29.7858,-84.8752,2.24,25.0,1111122 
NERRS,ioos:station:NOAA.NERRS:apaebwq:1,2017-10-06T17:45:00Z,29.7858,-84.8752,2.38,25.2,1111122 
NERRS,ioos:station:NOAA.NERRS:apaebwq:1,2017-10-06T18:45:00Z,29.7858,-84.8752,2.51,26.8,1111122 
NERRS,ioos:station:NOAA.NERRS:apaebwq:1,2017-10-06T19:45:00Z,29.7858,-84.8752,2.61,27.5,1111122 
NERRS,ioos:station:NOAA.NERRS:apaebwq:1,2017-10-06T20:45:00Z,29.7858,-84.8752,2.66,28.0,1111122 
NERRS,ioos:station:NOAA.NERRS:apaebwq:1,2017-10-06T21:45:00Z,29.7858,-84.8752,2.62,28.1,1111122 
NERRS,ioos:station:NOAA.NERRS:apaebwq:1,2017-10-06T22:45:00Z,29.7858,-84.8752,2.57,28.2,1111122 
NERRS,ioos:station:NOAA.NERRS:apaebwq:1,2017-10-06T23:45:00Z,29.7858,-84.8752,2.51,28.3,1111122 
NERRS,ioos:station:NOAA.NERRS:apaebwq:1,2017-10-07T00:45:00Z,29.7858,-84.8752,2.41,28.3,1111122 
NERRS,ioos:station:NOAA.NERRS:apaebwq:1,2017-10-07T01:45:00Z,29.7858,-84.8752,2.32,28.3,1111122 
NERRS,ioos:station:NOAA.NERRS:apaebwq:1,2017-10-07T02:45:00Z,29.7858,-84.8752,2.28,28.3,1111122 
NERRS,ioos:station:NOAA.NERRS:apaebwq:1,2017-10-07T03:45:00Z,29.7858,-84.8752,2.29,28.4,1111122 
NERRS,ioos:station:NOAA.NERRS:apaebwq:1,2017-10-07T04:45:00Z,29.7858,-84.8752,2.34,28.7,1111122 
NERRS,ioos:station:NOAA.NERRS:apaebwq:1,2017-10-07T05:45:00Z,29.7858,-84.8752,2.44,29.1,1111122 
NERRS,ioos:station:NOAA.NERRS:apaebwq:1,2017-10-07T06:45:00Z,29.7858,-84.8752,2.52,29.1,1111122 
NERRS,ioos:station:NOAA.NERRS:apaebwq:1,2017-10-07T07:45:00Z,29.7858,-84.8752,2.58,29.0,1111122 
NERRS,ioos:station:NOAA.NERRS:apaebwq:1,2017-10-07T08:45:00Z,29.7858,-84.8752,2.61,29.0,1111122 
NERRS,ioos:station:NOAA.NERRS:apaebwq:1,2017-10-07T09:45:00Z,29.7858,-84.8752,2.57,29.2,1111122 
NERRS,ioos:station:NOAA.NERRS:apaebwq:1,2017-10-07T10:45:00Z,29.7858,-84.8752,2.48,29.2,1111122 
NERRS,ioos:station:NOAA.NERRS:apaebwq:1,2017-10-07T11:45:00Z,29.7858,-84.8752,2.38,29.1,1111122 
NERRS,ioos:station:NOAA.NERRS:apaebwq:1,2017-10-07T12:45:00Z,29.7858,-84.8752,2.29,28.9,1111122 
NERRS,ioos:station:NOAA.NERRS:apaebwq:1,2017-10-07T13:45:00Z,29.7858,-84.8752,2.21,29.1,1111122 
NERRS,ioos:station:NOAA.NERRS:apaebwq:1,2017-10-07T14:45:00Z,29.7858,-84.8752,2.13,29.1,1111122 
NERRS,ioos:station:NOAA.NERRS:apaebwq:1,2017-10-07T15:45:00Z,29.7858,-84.8752,2.1,28.9,1111122 
NERRS,ioos:station:NOAA.NERRS:apaebwq:1,2017-10-07T16:45:00Z,29.7858,-84.8752,2.16,28.3,1111122 
NERRS,ioos:station:NOAA.NERRS:apaebwq:1,2017-10-07T17:45:00Z,29.7858,-84.8752,2.3,28.7,1111122 
NERRS,ioos:station:NOAA.NERRS:apaebwq:1,2017-10-07T18:45:00Z,29.7858,-84.8752,2.45,26.7,1111122 
NERRS,ioos:station:NOAA.NERRS:apaebwq:1,2017-10-07T19:45:00Z,29.7858,-84.8752,2.59,27.0,1111122 
NERRS,ioos:station:NOAA.NERRS:apaebwq:1,2017-10-07T20:45:00Z,29.7858,-84.8752,2.69,27.5,1111122 
NERRS,ioos:station:NOAA.NERRS:apaebwq:1,2017-10-07T21:45:00Z,29.7858,-84.8752,2.75,28.8,1111122 
NERRS,ioos:station:NOAA.NERRS:apaebwq:1,2017-10-07T22:45:00Z,29.7858,-84.8752,2.75,28.7,1111122 
NERRS,ioos:station:NOAA.NERRS:apaebwq:1,2017-10-07T23:45:00Z,29.7858,-84.8752,2.75,28.7,1111122 
NERRS,ioos:station:NOAA.NERRS:apaebwq:1,2017-10-08T00:45:00Z,29.7858,-84.8752,2.76,28.8,1111122 
NERRS,ioos:station:NOAA.NERRS:apaebwq:1,2017-10-08T01:45:00Z,29.7858,-84.8752,2.74,28.9,1111122 
NERRS,ioos:station:NOAA.NERRS:apaebwq:1,2017-10-08T02:45:00Z,29.7858,-84.8752,2.68,28.7,1111122 
NERRS,ioos:station:NOAA.NERRS:apaebwq:1,2017-10-08T03:45:00Z,29.7858,-84.8752,2.69,28.5,1111122 
NERRS,ioos:station:NOAA.NERRS:apaebwq:1,2017-10-08T04:45:00Z,29.7858,-84.8752,2.75,28.6,1111122 
NERRS,ioos:station:NOAA.NERRS:apaebwq:1,2017-10-08T05:45:00Z,29.7858,-84.8752,2.8,28.7,1111122 
NERRS,ioos:station:NOAA.NERRS:apaebwq:1,2017-10-08T06:45:00Z,29.7858,-84.8752,2.86,29.0,1111122 
NERRS,ioos:station:NOAA.NERRS:apaebwq:1,2017-10-08T07:45:00Z,29.7858,-84.8752,2.94,29.4,1111122 
NERRS,ioos:station:NOAA.NERRS:apaebwq:1,2017-10-08T08:45:00Z,29.7858,-84.8752,3.01,29.8,1111122 
NERRS,ioos:station:NOAA.NERRS:apaebwq:1,2017-10-08T09:45:00Z,29.7858,-84.8752,2.98,29.6,1111122 
NERRS,ioos:station:NOAA.NERRS:apaebwq:1,2017-10-08T10:45:00Z,29.7858,-84.8752,2.87,29.2,1111122 
NERRS,ioos:station:NOAA.NERRS:apaebwq:1,2017-10-08T11:45:00Z,29.7858,-84.8752,2.76,29.1,1111122 
NERRS,ioos:station:NOAA.NERRS:apaebwq:1,2017-10-08T12:45:00Z,29.7858,-84.8752,2.64,28.3,1111122 
NERRS,ioos:station:NOAA.NERRS:apaebwq:1,2017-10-08T13:45:00Z,29.7858,-84.8752,2.54,27.9,1111122 
NERRS,ioos:station:NOAA.NERRS:apaebwq:1,2017-10-08T14:45:00Z,29.7858,-84.8752,2.44,27.4,1111122 
NERRS,ioos:station:NOAA.NERRS:apaebwq:1,2017-10-08T15:45:00Z,29.7858,-84.8752,2.38,27.0,1111122 
NERRS,ioos:station:NOAA.NERRS:apaebwq:1,2017-10-08T16:45:00Z,29.7858,-84.8752,2.35,26.8,1111122 
NERRS,ioos:station:NOAA.NERRS:apaebwq:1,2017-10-08T17:45:00Z,29.7858,-84.8752,2.35,27.2,1111122 
NERRS,ioos:station:NOAA.NERRS:apaebwq:1,2017-10-08T18:45:00Z,29.7858,-84.8752,2.36,27.2,1111122 
NERRS,ioos:station:NOAA.NERRS:apaebwq:1,2017-10-08T19:45:00Z,29.7858,-84.8752,2.46,27.7,1111122 
NERRS,ioos:station:NOAA.NERRS:apaebwq:1,2017-10-08T20:45:00Z,29.7858,-84.8752,2.57,27.6,1111122 
NERRS,ioos:station:NOAA.NERRS:apaebwq:1,2017-10-08T21:45:00Z,29.7858,-84.8752,2.63,27.2,1111122 
NERRS,ioos:station:NOAA.NERRS:apaebwq:1,2017-10-08T22:45:00Z,29.7858,-84.8752,2.65,26.9,1111122 
NERRS,ioos:station:NOAA.NERRS:apaebwq:1,2017-10-08T23:45:00Z,29.7858,-84.8752,2.61,26.9,1111122 
NERRS,ioos:station:NOAA.NERRS:apaebwq:1,2017-10-09T00:45:00Z,29.7858,-84.8752,2.55,26.5,1111122 
NERRS,ioos:station:NOAA.NERRS:apaebwq:1,2017-10-09T01:45:00Z,29.7858,-84.8752,2.51,26.3,1111122 
NERRS,ioos:station:NOAA.NERRS:apaebwq:1,2017-10-09T02:45:00Z,29.7858,-84.8752,2.51,26.2,1111122 
NERRS,ioos:station:NOAA.NERRS:apaebwq:1,2017-10-09T03:45:00Z,29.7858,-84.8752,2.48,26.3,1111122 
NERRS,ioos:station:NOAA.NERRS:apaebwq:1,2017-10-09T04:45:00Z,29.7858,-84.8752,2.48,26.2,1111122 
NERRS,ioos:station:NOAA.NERRS:apaebwq:1,2017-10-09T05:45:00Z,29.7858,-84.8752,2.5,26.7,1111122 
NERRS,ioos:station:NOAA.NERRS:apaebwq:1,2017-10-09T06:45:00Z,29.7858,-84.8752,2.56,26.7,1111122 
NERRS,ioos:station:NOAA.NERRS:apaebwq:1,2017-10-09T07:45:00Z,29.7858,-84.8752,2.63,26.6,1111122 
NERRS,ioos:station:NOAA.NERRS:apaebwq:1,2017-10-09T10:45:00Z,29.7858,-84.8752,2.62,26.1,1111122 
NERRS,ioos:station:NOAA.NERRS:apaebwq:1,2017-10-09T11:45:00Z,29.7858,-84.8752,2.52,25.8,1111122 
NERRS,ioos:station:NOAA.NERRS:apaebwq:1,2017-10-09T12:45:00Z,29.7858,-84.8752,2.41,25.5,1111122 
NERRS,ioos:station:NOAA.NERRS:apaebwq:1,2017-10-09T13:45:00Z,29.7858,-84.8752,2.32,25.4,1111122 
NERRS,ioos:station:NOAA.NERRS:apaebwq:1,2017-10-09T14:45:00Z,29.7858,-84.8752,2.21,25.2,1111122 
NERRS,ioos:station:NOAA.NERRS:apaebwq:1,2017-10-09T15:45:00Z,29.7858,-84.8752,2.12,25.0,1111122 
NERRS,ioos:station:NOAA.NERRS:apaebwq:1,2017-10-09T16:45:00Z,29.7858,-84.8752,2.04,24.9,1111122 
NERRS,ioos:station:NOAA.NERRS:apaebwq:1,2017-10-09T17:45:00Z,29.7858,-84.8752,2.0,24.9,1111122 
NERRS,ioos:station:NOAA.NERRS:apaebwq:1,2017-10-09T18:45:00Z,29.7858,-84.8752,2.01,25.0,1111122 
NERRS,ioos:station:NOAA.NERRS:apaebwq:1,2017-10-09T19:45:00Z,29.7858,-84.8752,2.11,25.1,1111122 
NERRS,ioos:station:NOAA.NERRS:apaebwq:1,2017-10-09T20:45:00Z,29.7858,-84.8752,2.26,25.2,1111122 
NERRS,ioos:station:NOAA.NERRS:apaebwq:1,2017-10-09T21:45:00Z,29.7858,-84.8752,2.37,24.8,1111122 
NERRS,ioos:station:NOAA.NERRS:apaebwq:1,2017-10-09T22:45:00Z,29.7858,-84.8752,2.44,24.8,1111122 
NERRS,ioos:station:NOAA.NERRS:apaebwq:1,2017-10-09T23:45:00Z,29.7858,-84.8752,2.48,24.8,1111122 
NERRS,ioos:station:NOAA.NERRS:apaebwq:1,2017-10-10T00:45:00Z,29.7858,-84.8752,2.45,24.8,1111122 
NERRS,ioos:station:NOAA.NERRS:apaebwq:1,2017-10-10T01:45:00Z,29.7858,-84.8752,2.39,24.6,1111122 
NERRS,ioos:station:NOAA.NERRS:apaebwq:1,2017-10-10T02:45:00Z,29.7858,-84.8752,2.33,24.3,1111122 
NERRS,ioos:station:NOAA.NERRS:apaebwq:1,2017-10-10T03:45:00Z,29.7858,-84.8752,2.29,24.0,1111122 
NERRS,ioos:station:NOAA.NERRS:apaebwq:1,2017-10-10T04:45:00Z,29.7858,-84.8752,2.29,24.2,1111122 
NERRS,ioos:station:NOAA.NERRS:apaebwq:1,2017-10-10T05:45:00Z,29.7858,-84.8752,2.3,24.2,1111122 
NERRS,ioos:station:NOAA.NERRS:apaebwq:1,2017-10-10T06:45:00Z,29.7858,-84.8752,2.32,24.4,1111122 
NERRS,ioos:station:NOAA.NERRS:apaebwq:1,2017-10-10T07:45:00Z,29.7858,-84.8752,2.4,24.3,1111122 
NERRS,ioos:station:NOAA.NERRS:apaebwq:1,2017-10-10T08:45:00Z,29.7858,-84.8752,2.5,24.0,1111122 
NERRS,ioos:station:NOAA.NERRS:apaebwq:1,2017-10-10T09:45:00Z,29.7858,-84.8752,2.53,24.1,1111122 
NERRS,ioos:station:NOAA.NERRS:apaebwq:1,2017-10-10T10:45:00Z,29.7858,-84.8752,2.51,24.2,1111122 
NERRS,ioos:station:NOAA.NERRS:apaebwq:1,2017-10-10T11:45:00Z,29.7858,-84.8752,2.44,24.2,1111122 
NERRS,ioos:station:NOAA.NERRS:apaebwq:1,2017-10-10T12:45:00Z,29.7858,-84.8752,2.36,23.9,1111122 
NERRS,ioos:station:NOAA.NERRS:apaebwq:1,2017-10-10T13:45:00Z,29.7858,-84.8752,2.27,23.7,1111122 
NERRS,ioos:station:NOAA.NERRS:apaebwq:1,2017-10-10T14:45:00Z,29.7858,-84.8752,2.16,23.6,1111122 
NERRS,ioos:station:NOAA.NERRS:apaebwq:1,2017-10-10T15:45:00Z,29.7858,-84.8752,2.05,23.4,1111122 
NERRS,ioos:station:NOAA.NERRS:apaebwq:1,2017-10-10T16:45:00Z,29.7858,-84.8752,1.96,23.1,1111122 
NERRS,ioos:station:NOAA.NERRS:apaebwq:1,2017-10-10T17:45:00Z,29.7858,-84.8752,1.89,23.2,1111122 
NERRS,ioos:station:NOAA.NERRS:apaebwq:1,2017-10-10T18:45:00Z,29.7858,-84.8752,1.87,23.4,1111122 
NERRS,ioos:station:NOAA.NERRS:apaebwq:1,2017-10-10T19:45:00Z,29.7858,-84.8752,1.94,23.2,1111122 
NERRS,ioos:station:NOAA.NERRS:apaebwq:1,2017-10-10T20:45:00Z,29.7858,-84.8752,2.1,22.9,1111122 
NERRS,ioos:station:NOAA.NERRS:apaebwq:1,2017-10-10T21:45:00Z,29.7858,-84.8752,2.25,23.0,1111122 
NERRS,ioos:station:NOAA.NERRS:apaebwq:1,2017-10-10T22:45:00Z,29.7858,-84.8752,2.35,23.1,1111122 
NERRS,ioos:station:NOAA.NERRS:apaebwq:1,2017-10-10T23:45:00Z,29.7858,-84.8752,2.42,22.4,1111122 
NERRS,ioos:station:NOAA.NERRS:apaebwq:1,2017-10-11T00:45:00Z,29.7858,-84.8752,2.45,22.8,1111122 
NERRS,ioos:station:NOAA.NERRS:apaebwq:1,2017-10-11T01:45:00Z,29.7858,-84.8752,2.42,23.0,1111122 
NERRS,ioos:station:NOAA.NERRS:apaebwq:1,2017-10-11T02:45:00Z,29.7858,-84.8752,2.37,22.5,1111122 
NERRS,ioos:station:NOAA.NERRS:apaebwq:1,2017-10-11T03:45:00Z,29.7858,-84.8752,2.32,22.5,1111122 
NERRS,ioos:station:NOAA.NERRS:apaebwq:1,2017-10-11T04:45:00Z,29.7858,-84.8752,2.28,22.4,1111122 
NERRS,ioos:station:NOAA.NERRS:apaebwq:1,2017-10-11T05:45:00Z,29.7858,-84.8752,2.27,22.5,1111122 
NERRS,ioos:station:NOAA.NERRS:apaebwq:1,2017-10-11T06:45:00Z,29.7858,-84.8752,2.26,22.6,1111122 
NERRS,ioos:station:NOAA.NERRS:apaebwq:1,2017-10-11T07:45:00Z,29.7858,-84.8752,2.3,22.5,1111122 
NERRS,ioos:station:NOAA.NERRS:apaebwq:1,2017-10-11T08:45:00Z,29.7858,-84.8752,2.34,22.3,1111122 
NERRS,ioos:station:NOAA.NERRS:apaebwq:1,2017-10-11T09:45:00Z,29.7858,-84.8752,2.39,22.2,1111122 
NERRS,ioos:station:NOAA.NERRS:apaebwq:1,2017-10-11T10:45:00Z,29.7858,-84.8752,2.41,22.5,1111122 
NERRS,ioos:station:NOAA.NERRS:apaebwq:1,2017-10-11T11:45:00Z,29.7858,-84.8752,2.38,22.5,1111122 
NERRS,ioos:station:NOAA.NERRS:apaebwq:1,2017-10-11T12:45:00Z,29.7858,-84.8752,2.33,22.5,1111122 
NERRS,ioos:station:NOAA.NERRS:apaebwq:1,2017-10-11T13:45:00Z,29.7858,-84.8752,2.26,22.4,1111122 
NERRS,ioos:station:NOAA.NERRS:apaebwq:1,2017-10-11T14:45:00Z,29.7858,-84.8752,2.16,22.4,1111122 
NERRS,ioos:station:NOAA.NERRS:apaebwq:1,2017-10-11T15:45:00Z,29.7858,-84.8752,2.04,22.2,1111122 